OpenBCM V2.0.2 (Linux)

Packet Radio Mailbox

IZ3LSV

[San Dona' di P. JN]

 Login: GUEST





  
LU9DCE > KEPS     21.03.18 18:13l 261 Lines 12992 Bytes #999 (0) @ WW
BID : 34773_LU9DCE
Read: GUEST
Subj: SAT TLE OF 21
Path: IZ3LSV<IR2UBX<EA2RCF<LU9DCE
Sent: 180321/1601Z @:LU9DCE.TOR.BA.ARG.SOAM #:34773 [TORTUGUITAS] FBB7.07
From: LU9DCE@LU9DCE.TOR.BA.ARG.SOAM
To  : KEPS@WW


            __    _  _  ___  ____   ___  ____    ____  ____  ____
           (  )  / )( \/ _ \(    \ / __)(  __)  (  _ \(  _ \/ ___)
           / (_/\) \/ (\__  )) D (( (__  ) _)    ) _ ( ) _ (\___ \
           \____/\____/(___/(____/ \___)(____)  (____/(____/(____/
               ESTACION DE PACKET RADIO - BUENOS AIRES (GF05OM)
                   BOLETINES INFORMATIVOS PROGRAMADOS (BIP)
                    LU9DCE@GMX.COM - RF 147070 @ 1200 BAUD
                           telnet lu9dce.dynu.com
             BBS port 6300 / NODE port 3694 / DXCLUSTER port 9000

+------------------------------------------------------------------------------+
OSCAR 7
1  7530U 74089B   18079.91276635 -.00000043 +00000-0 +11349-4 0  9997
2  7530 101.6767 048.5940 0012247 144.6477 276.5501 12.53631551983305
OSCAR 11 (UoSAT 2)
1 14781U 84021B   18079.88147746 +.00000111 +00000-0 +19842-4 0  9997
2 14781 097.6608 119.8105 0008913 022.6420 337.5186 14.82988438810356
OSCAR 19 (LUSAT)
1 20442U 90005G   18079.87916316 +.00000011 +00000-0 +20031-4 0  9994
2 20442 098.6033 018.9491 0012730 054.1156 306.1208 14.32889623471187
KITSAT B
1 22825U 93061C   18079.92068534 +.00000000 +00000-0 +17971-4 0  9999
2 22825 098.8536 054.4810 0007428 240.9407 119.1031 14.30024580276681
POSAT 1
1 22826U 93061D   18080.51754820  .00000004  00000-0  19171-4 0  9995
2 22826  98.8478  55.1367 0008075 227.7959 132.2537 14.30355707277222
RADIO ROSTO
1 23439U 94085A   18079.56155737 -.00000043 +00000-0 -14186-4 0  9994
2 23439 064.8148 132.1685 0160273 198.0305 274.8278 11.27566573956578
JAS 2
1 24278U 96046B   18079.56967919 -.00000007 +00000-0 +30946-4 0  9999
2 24278 098.5257 290.4933 0350080 341.0111 017.8242 13.53082246066008
TECHSAT 1B
1 25397U 98043D   18079.89782377 +.00000002 +00000-0 +20100-4 0  9995
2 25397 098.6422 021.8351 0000242 325.8161 034.3002 14.23641743022947
ISS (ZARYA)
1 25544U 98067A   18080.51488668  .00001810  00000-0  34564-4 0  9999
2 25544  51.6407  95.7783 0001826 226.4922 252.5706 15.54122438104881
PCSAT
1 26931U 01043C   18080.47007610 -.00000020  00000-0  24013-4 0  9998
2 26931  67.0499  95.7463 0006613 282.9968  77.0394 14.30497740860005
SAUDISAT 1C
1 27607U 02058C   18080.36959346  .00000066  00000-0  30196-4 0  9994
2 27607  64.5571 358.4581 0055021 348.8908  11.0974 14.75430764820002
CUTE-1
1 27844U 03031E   18080.01100580  .00000059  00000-0  46218-4 0  9993
2 27844  98.6894  89.9589 0008635 266.2697  93.7493 14.22100766763661
CUBESAT XI 4
1 27848U 03031J   18079.94583695 +.00000036 +00000-0 +36383-4 0  9996
2 27848 098.6981 090.2624 0008533 277.8716 082.1492 14.21706335763499
MOZHAYETS 4
1 27939U 03042A   18080.51309212  .00000156  00000-0  36550-4 0  9994
2 27939  97.9752 221.9851 0014209  69.3997   5.7430 14.66667195773960
CUBESAT XI 5
1 28895U 05043F   18080.42265428  .00000156  00000-0  38820-4 0  9991
2 28895  97.8954 235.4967 0016458 351.6938   8.3990 14.63520732661039
CUTE-1.7+APD II
1 32785U 08021C   18080.23083469  .00000299  00000-0  38101-4 0  9995
2 32785  97.5519  96.5899 0012356 336.6378  23.4276 14.88080355536091
DELFI C3
1 32789U 08021G   18079.74083550 +.00001424 +00000-0 +10226-3 0  9992
2 32789 097.5231 136.7563 0011194 234.2853 125.7333 15.05836768538371
SEEDS
1 32791U 08021J   18080.52955694  .00000498  00000-0  56347-4 0  9995
2 32791  97.5428 102.0283 0012210 315.2517  44.7715 14.90493730536456
YUBELEINY
1 32953U 08025A   18080.47230911  .00000007  00000-0 -21828-4 0  9994
2 32953  82.5004  67.2241 0020100  43.7811 316.4858 12.43082339445870
PRISM (HITOMI)
1 33493U 09002B   18080.49089207  .00000781  00000-0  74969-4 0  9994
2 33493  98.1395 339.1800 0013639 247.5786 112.3928 14.96122634497233
KKS-1 (KISEKI)
1 33499U 09002H   18080.21315987  .00000132  00000-0  27564-4 0  9996
2 33499  98.3521 259.1363 0008632 205.6464 154.4317 14.75305173492201
SWISSCUBE
1 35932U 09051B   18080.41328605  .00000160  00000-0  47286-4 0  9991
2 35932  98.5310 229.5296 0008815 117.1932 243.0165 14.56132718450661
BEESAT
1 35933U 09051C   18079.96586802  .00000134  00000-0  41125-4 0  9992
2 35933  98.5350 230.5629 0006866 128.4921 231.6893 14.56239581450707
ITUPSAT 1
1 35935U 09051E   18080.45212620  .00000109  00000-0  36191-4 0  9993
2 35935  98.5463 231.3144 0009225 124.1362 236.0710 14.55419889450560
XIWANG-1 (HOPE-1)
1 36122U 09072B   18079.92269997 -.00000023 +00000-0 +49762-4 0  9998
2 36122 100.0818 098.6664 0007009 320.5141 039.5462 13.16343859396937
TISAT 1
1 36799U 10035E   18080.18834953  .00000690  00000-0  76225-4 0  9992
2 36799  98.0916 214.1508 0013419 133.8838 226.3490 14.90727054417043
JUGNU
1 37839U 11058B   18079.47994047  .00000327  00000-0  32581-4 0  9999
2 37839  19.9605 215.1514 0019064 349.1611  65.2017 14.12612765332819
SRMSAT
1 37841U 11058D   18080.49768543  .00000320  00000-0  30478-4 0  9992
2 37841  19.9715 256.3767 0011820 247.6575 136.5931 14.10601225332481
M-CUBED/EXP-1 PRIME
1 37855U 11061F   18080.01262570  .00002118  00000-0  11595-3 0  9993
2 37855 101.7248  97.4215 0177197 343.1869  16.3515 15.04188175348395
HORYU 2
1 38340U 12025D   18080.52848362  .00000248  00000-0  44518-4 0  9993
2 38340  98.3728  99.2132 0012671 126.5725 233.6651 14.75515410314184
STRAND 1
1 39090U 13009E   18079.76782592  .00000050  00000-0  32759-4 0  9990
2 39090  98.5305 287.2579 0008861 193.1045 166.9911 14.35015689265142
SOMP
1 39134U 13015E   18080.31028116  .00001924  00000-0  10085-3 0  9992
2 39134  64.8658  51.1211 0021315 221.5581 138.3926 15.18916531271558
BEESAT 3
1 39135U 13015F   18079.72770868 +.00001728 +00000-0 +97743-4 0  9993
2 39135 064.8686 065.2246 0026544 246.7618 113.0712 15.16474517270848
BEESAT 2
1 39136U 13015G   18080.45821659  .00001612  00000-0  93143-4 0  9993
2 39136  64.8689  65.4228 0027106 246.0107 113.8180 15.15953834271295
CUBEBUG 1
1 39153U 13018D   18080.23722319  .00000288  00000-0  44693-4 0  9998
2 39153  97.9768 176.0138 0016009 227.8467 132.1386 14.80357134264571
ZACUBE
1 39417U 13066B   18079.66665051 +.00000312 +00000-0 +45557-4 0  9996
2 39417 097.5971 112.9881 0060681 085.3758 275.4383 14.80893269233696
TRITON 1
1 39427U 13066M   18080.48784363  .00000183  00000-0  37097-4 0  9993
2 39427  97.6395  82.2406 0114144 179.6134 180.5181 14.67624238231715
GOMX 1
1 39430U 13066Q   18080.52309194  .00000194  00000-0  44687-4 0  9992
2 39430  97.6902  63.7538 0150240 247.0967 111.4316 14.59040854230364
HUMSAT D
1 39433U 13066T   18080.10658280  .00000730  00000-0  77223-4 0  9990
2 39433  97.6148 139.5221 0031310  18.7485 341.4880 14.91780539235299
50 SAT
1 39436U 13066W   18079.91561787  .00131772  00000-0  12848-2 0  9996
2 39436  97.7126 209.2727 0003753 200.6140 159.4968 15.65793032239466
CUBEBUG 2
1 39440U 13066AA  18079.65135001  .00000279  00000-0  45646-4 0  9999
2 39440  97.6074 100.1230 0081900 122.5506 238.3649 14.75627993232860
FUNCUBE 1
1 39444U 13066AE  18080.04642847  .00000372  00000-0  52170-4 0  9993
2 39444  97.5983 114.7611 0059813  80.0349 280.7609 14.81661529232606
UWE-3
1 39446U 13066AG  18079.96110064 +.00000292 +00000-0 +45347-4 0  9994
2 39446 097.6009 106.4718 0071799 103.3191 257.6040 14.78161874231497
SPROUT
1 39770U 14029E   18080.49793632  .00000957  00000-0  11369-3 0  9996
2 39770  97.8718 182.3093 0010420 131.1299 229.0821 14.86726311207335
UNISAT 6
1 40012U 14033C   18080.42886212  .00000238  00000-0  42930-4 0  9993
2 40012  97.8214 319.8883 0059674 121.2155 239.4920 14.73779216201771
DUCHIFAT 1
1 40021U 14033M   18079.83264310  .00000565  00000-0  64068-4 0  9994
2 40021  97.9173 358.3927 0014377 107.3894 252.8897 14.90229114203791
QB50P1
1 40025U 14033R   18080.49995690  .00000406  00000-0  49538-4 0  9993
2 40025  97.9079 356.0698 0013854 110.8699 249.4002 14.88658910203743
CHUBUSAT 1
1 40300U 14070C   18080.49092847  .00001104  00000-0  52035-4 0  9994
2 40300  97.3696 160.0453 0019358 205.8470 249.8416 15.21438089186943
NUDT-PHONESAT
1 40900U 15049B   18080.02545646  .00003147  00000-0  14507-3 0  9996
2 40900  97.4434  89.3097 0012969 345.5572  14.5290 15.20935469138513
ZDPS 2A
1 40901U 15049C   18080.48141710  .00001313  00000-0  69891-4 0  9991
2 40901  97.4604  88.2026 0013383 349.9410  10.1554 15.16923470138365
ZDPS 2B
1 40902U 15049D   18080.17947527  .00001262  00000-0  67677-4 0  9991
2 40902  97.4497  86.0743 0013387 347.9308  12.1603 15.16724624138307
XW-2A
1 40903U 15049E   18080.47611953  .00002756  00000-0  70710-4 0  9997
2 40903  97.3945 114.4276 0013971 354.1399   5.9681 15.40142956140309
KAITUO 1A
1 40904U 15049F   18080.56728936  .00000701  00000-0  41092-4 0  9997
2 40904  97.4585  85.7925 0014723 348.8397 128.7022 15.14924157138230
OBJECT G
1 40905U 15049G   18080.50756705  .00000614  00000-0  37457-4 0  9990
2 40905  97.4587  83.9563 0015201 340.0697  19.9939 15.13891851138152
XW-2C
1 40906U 15049H   18080.48154900  .00000965  00000-0  55013-4 0  9994
2 40906  97.4605  85.5876 0014454 340.2442  19.8228 15.15067416138219
XW-2D
1 40907U 15049J   18080.50852260  .00001050  00000-0  59312-4 0  9994
2 40907  97.4578  85.3221 0013743 338.2108  21.8538 15.15209411138228
LILACSAT 2
1 40908U 15049K   18080.01403466  .00000566  00000-0  35239-4 0  9994
2 40908  97.4686  84.3075 0015442 340.1529  19.9100 15.13436962138035
XW-2F
1 40910U 15049M   18080.52437991  .00001519  00000-0  81625-4 0  9992
2 40910  97.4584  86.4948 0014351 333.9005  26.1503 15.16340576138174
XW-2B
1 40911U 15049N   18080.52287726  .00000993  00000-0  56390-4 0  9998
2 40911  97.4615  85.8400 0013664 338.7264  21.3399 15.15156444138125
